Location: Bishop�s Knoyle
(51.0728°N, 2.1714°W)
Time: 03:31:05
(UTC+00:00)

NOSS 2-2 (E) - Pass Details

Date: 18 September 2020
Orbit: 469 x 1737 km, 63.3° (Epoch: 19 October)

Event Time Altitude Azimuth Distance (km) Brightness Sun altitude
Rises 19:11:39 0° 200° (SSW) 2,499 6.8 -9.6°
Reaches altitude 10° 19:13:47 10° 191° (S) 1,632 5.7 -9.9°
Maximum altitude 19:17:01 36° 123° (ESE) 809 3.7 -10.4°
Drops below altitude 10° 19:20:41 10° 56° (NE) 1,850 5.6 -11.0°
Sets 19:23:15 0° 48° (NE) 2,894 6.7 -11.4°
